Time,TemperatureF,DewpointF,PressureIn,WindDirection,WindDirectionDegrees,WindSpeedMPH,WindSpeedGustMPH,Humidity,HourlyPrecipIn,Conditions,Clouds,dailyrainin,SoftwareType,DateUTC
2013-01-10 00:02:00,36.0,28.0,30.24,South,170,13.0,18.0,74,-99.99,,,-99.99,,2013-01-10 06:02:00,
2013-01-10 00:12:00,34.0,28.0,30.24,South,170,10.0,16.0,80,-99.99,,,-99.99,,2013-01-10 06:12:00,
2013-01-10 00:22:00,34.0,28.0,30.24,South,170,10.0,16.0,80,-99.99,,,-99.99,,2013-01-10 06:22:00,
2013-01-10 00:32:00,36.0,28.0,30.24,South,170,12.0,21.0,74,-99.99,,,-99.99,,2013-01-10 06:32:00,
2013-01-10 00:42:00,36.0,28.0,30.24,South,170,12.0,21.0,74,-99.99,,,-99.99,,2013-01-10 06:42:00,
2013-01-10 00:52:00,36.0,28.0,30.23,SSE,160,10.0,16.0,74,-99.99,,,-99.99,,2013-01-10 06:52:00,
2013-01-10 01:02:00,36.0,28.0,30.23,SSE,160,10.0,16.0,74,-99.99,,,-99.99,,2013-01-10 07:02:00,
2013-01-10 01:12:00,36.0,28.0,30.23,South,170,13.0,18.0,74,-99.99,,,-99.99,,2013-01-10 07:12:00,
2013-01-10 01:22:00,36.0,28.0,30.23,South,170,13.0,18.0,74,-99.99,,,-99.99,,2013-01-10 07:22:00,
2013-01-10 01:32:00,36.0,28.0,30.22,North,350,14.0,21.0,74,-99.99,,,-99.99,,2013-01-10 07:32:00,
2013-01-10 01:42:00,36.0,28.0,30.22,North,350,14.0,21.0,74,-99.99,,,-99.99,,2013-01-10 07:42:00,
2013-01-10 01:52:00,34.0,28.0,30.22,South,170,13.0,20.0,80,-99.99,,,-99.99,,2013-01-10 07:52:00,
2013-01-10 02:02:00,34.0,28.0,30.22,South,170,13.0,20.0,80,-99.99,,,-99.99,,2013-01-10 08:02:00,
2013-01-10 02:12:00,34.0,28.0,30.22,South,170,9.0,-999.0,80,-99.99,,,-99.99,,2013-01-10 08:12:00,
2013-01-10 02:22:00,34.0,28.0,30.22,South,170,9.0,-999.0,80,-99.99,,,-99.99,,2013-01-10 08:22:00,
2013-01-10 02:32:00,34.0,28.0,30.22,North,350,9.0,-999.0,80,-99.99,,,-99.99,,2013-01-10 08:32:00,
2013-01-10 02:42:00,34.0,28.0,30.22,North,350,9.0,-999.0,80,-99.99,,,-99.99,,2013-01-10 08:42:00,
2013-01-10 02:52:00,34.0,28.0,30.22,South,170,12.0,16.0,80,-99.99,,,-99.99,,2013-01-10 08:52:00,
2013-01-10 03:02:00,34.0,28.0,30.22,South,170,12.0,16.0,80,-99.99,,,-99.99,,2013-01-10 09:02:00,
2013-01-10 03:12:00,34.0,28.0,30.21,South,170,10.0,17.0,80,-99.99,,,-99.99,,2013-01-10 09:12:00,
2013-01-10 03:22:00,34.0,28.0,30.21,South,170,10.0,17.0,80,-99.99,,,-99.99,,2013-01-10 09:22:00,
2013-01-10 03:32:00,34.0,28.0,30.21,South,170,10.0,15.0,80,-99.99,,,-99.99,,2013-01-10 09:32:00,
2013-01-10 03:42:00,34.0,28.0,30.21,South,170,10.0,15.0,80,-99.99,,,-99.99,,2013-01-10 09:42:00,
2013-01-10 03:52:00,34.0,28.0,30.20,South,180,9.0,-999.0,80,-99.99,,,-99.99,,2013-01-10 09:52:00,
2013-01-10 04:03:00,34.0,28.0,30.20,South,180,9.0,-999.0,80,-99.99,,,-99.99,,2013-01-10 10:03:00,
2013-01-10 04:12:00,32.0,27.0,30.20,South,180,8.0,-999.0,80,-99.99,,,-99.99,,2013-01-10 10:12:00,
2013-01-10 04:22:00,32.0,27.0,30.20,South,180,8.0,-999.0,80,-99.99,,,-99.99,,2013-01-10 10:22:00,
2013-01-10 04:32:00,34.0,28.0,30.20,South,170,9.0,-999.0,80,-99.99,,,-99.99,,2013-01-10 10:32:00,
2013-01-10 04:42:00,34.0,28.0,30.20,South,170,9.0,-999.0,80,-99.99,,,-99.99,,2013-01-10 10:42:00,
2013-01-10 04:52:00,32.0,27.0,30.19,South,170,9.0,-999.0,80,-99.99,,,-99.99,,2013-01-10 10:52:00,
2013-01-10 05:02:00,32.0,27.0,30.19,South,170,9.0,-999.0,80,-99.99,,,-99.99,,2013-01-10 11:02:00,
2013-01-10 05:12:00,34.0,28.0,30.19,South,180,10.0,16.0,80,-99.99,,,-99.99,,2013-01-10 11:12:00,
2013-01-10 05:22:00,34.0,28.0,30.19,South,180,10.0,16.0,80,-99.99,,,-99.99,,2013-01-10 11:22:00,
2013-01-10 05:32:00,34.0,28.0,30.18,South,180,10.0,-999.0,80,-99.99,,,-99.99,,2013-01-10 11:32:00,
2013-01-10 05:42:00,34.0,28.0,30.18,South,180,10.0,-999.0,80,-99.99,,,-99.99,,2013-01-10 11:42:00,
2013-01-10 05:52:00,34.0,28.0,30.18,South,170,8.0,-999.0,80,-99.99,,,-99.99,,2013-01-10 11:52:00,
2013-01-10 06:03:00,34.0,28.0,30.18,South,170,8.0,-999.0,80,-99.99,,,-99.99,,2013-01-10 12:03:00,
2013-01-10 06:12:00,34.0,28.0,30.17,SSE,160,8.0,-999.0,80,-99.99,,,-99.99,,2013-01-10 12:12:00,
2013-01-10 06:22:00,34.0,28.0,30.17,SSE,160,8.0,-999.0,80,-99.99,,,-99.99,,2013-01-10 12:22:00,
2013-01-10 06:32:00,34.0,27.0,30.17,SSE,150,6.0,-999.0,74,-99.99,,,-99.99,,2013-01-10 12:32:00,
2013-01-10 06:42:00,34.0,27.0,30.17,SSE,150,6.0,-999.0,74,-99.99,,,-99.99,,2013-01-10 12:42:00,
2013-01-10 06:52:00,32.0,27.0,30.16,SSE,160,8.0,-999.0,80,-99.99,,,-99.99,,2013-01-10 12:52:00,
2013-01-10 07:02:00,32.0,27.0,30.16,SSE,160,8.0,-999.0,80,-99.99,,,-99.99,,2013-01-10 13:02:00,
2013-01-10 07:12:00,32.0,27.0,30.15,SSE,160,6.0,-999.0,80,-99.99,,,-99.99,,2013-01-10 13:12:00,
2013-01-10 07:22:00,32.0,27.0,30.15,SSE,160,6.0,-999.0,80,-99.99,,,-99.99,,2013-01-10 13:22:00,
2013-01-10 07:32:00,34.0,27.0,30.14,SE,140,9.0,-999.0,74,-99.99,,,-99.99,,2013-01-10 13:32:00,
2013-01-10 07:42:00,34.0,27.0,30.14,SE,140,9.0,-999.0,74,-99.99,,,-99.99,,2013-01-10 13:42:00,
2013-01-10 07:52:00,34.0,27.0,30.14,SE,140,12.0,17.0,74,-99.99,,,-99.99,,2013-01-10 13:52:00,
2013-01-10 08:02:00,34.0,27.0,30.14,SE,140,12.0,17.0,74,-99.99,,,-99.99,,2013-01-10 14:02:00,
2013-01-10 08:12:00,34.0,27.0,30.14,SE,140,12.0,17.0,74,-99.99,,,-99.99,,2013-01-10 14:12:00,
2013-01-10 08:22:00,32.0,27.0,30.14,SSE,160,8.0,-999.0,80,-99.99,,,-99.99,,2013-01-10 14:22:00,
2013-01-10 08:33:00,30.0,25.0,30.14,South,170,6.0,-999.0,80,-99.99,,,-99.99,,2013-01-10 14:33:00,
2013-01-10 08:43:00,30.0,25.0,30.14,South,170,6.0,-999.0,80,-99.99,,,-99.99,,2013-01-10 14:43:00,
2013-01-10 08:53:00,32.0,27.0,30.13,South,170,5.0,-999.0,80,-99.99,,,-99.99,,2013-01-10 14:53:00,
2013-01-10 09:03:00,32.0,27.0,30.13,South,170,5.0,-999.0,80,-99.99,,,-99.99,,2013-01-10 15:03:00,
2013-01-10 09:12:00,32.0,25.0,30.13,SE,140,7.0,-999.0,74,-99.99,,,-99.99,,2013-01-10 15:12:00,
2013-01-10 09:23:00,32.0,25.0,30.13,SE,140,7.0,-999.0,74,-99.99,,,-99.99,,2013-01-10 15:23:00,
2013-01-10 09:33:00,34.0,25.0,30.12,SSE,160,8.0,-999.0,69,-99.99,,,-99.99,,2013-01-10 15:33:00,
2013-01-10 09:43:00,34.0,25.0,30.12,SSE,160,8.0,-999.0,69,-99.99,,,-99.99,,2013-01-10 15:43:00,
2013-01-10 09:53:00,36.0,25.0,30.11,SSE,160,6.0,-999.0,64,-99.99,,,-99.99,,2013-01-10 15:53:00,
2013-01-10 10:02:00,36.0,25.0,30.11,SSE,160,6.0,-999.0,64,-99.99,,,-99.99,,2013-01-10 16:02:00,
2013-01-10 10:12:00,36.0,25.0,30.10,SE,140,7.0,-999.0,64,-99.99,,,-99.99,,2013-01-10 16:12:00,
2013-01-10 10:23:00,36.0,25.0,30.10,SE,140,7.0,-999.0,64,-99.99,,,-99.99,,2013-01-10 16:23:00,
2013-01-10 10:33:00,32.0,25.0,30.09,East,80,6.0,-999.0,74,-99.99,,,-99.99,,2013-01-10 16:33:00,
2013-01-10 10:43:00,32.0,25.0,30.09,East,80,6.0,-999.0,74,-99.99,,,-99.99,,2013-01-10 16:43:00,
2013-01-10 10:52:00,34.0,25.0,30.06,East,90,7.0,-999.0,69,-99.99,,,-99.99,,2013-01-10 16:52:00,
2013-01-10 11:03:00,34.0,25.0,30.06,East,90,7.0,-999.0,69,-99.99,,,-99.99,,2013-01-10 17:03:00,
2013-01-10 11:12:00,34.0,25.0,30.05,ESE,110,9.0,-999.0,69,-99.99,,,-99.99,,2013-01-10 17:12:00,
2013-01-10 11:22:00,34.0,25.0,30.05,ESE,110,9.0,-999.0,69,-99.99,,,-99.99,,2013-01-10 17:22:00,
2013-01-10 11:33:00,34.0,25.0,30.04,ESE,120,8.0,-999.0,69,-99.99,,,-99.99,,2013-01-10 17:33:00,
2013-01-10 11:42:00,34.0,25.0,30.04,ESE,120,8.0,-999.0,69,-99.99,,,-99.99,,2013-01-10 17:42:00,
2013-01-10 11:53:00,36.0,27.0,30.02,ESE,120,8.0,-999.0,69,-99.99,,,-99.99,,2013-01-10 17:53:00,
2013-01-10 12:03:00,36.0,27.0,30.02,ESE,120,8.0,-999.0,69,-99.99,,,-99.99,,2013-01-10 18:03:00,
2013-01-10 12:12:00,37.0,27.0,30.00,ESE,110,6.0,-999.0,64,-99.99,,,-99.99,,2013-01-10 18:12:00,
2013-01-10 12:23:00,37.0,27.0,30.00,ESE,110,6.0,-999.0,64,-99.99,,,-99.99,,2013-01-10 18:23:00,
2013-01-10 12:33:00,37.0,25.0,29.98,SE,130,10.0,17.0,60,-99.99,,,-99.99,,2013-01-10 18:33:00,
2013-01-10 12:43:00,37.0,25.0,29.98,SE,130,10.0,17.0,60,-99.99,,,-99.99,,2013-01-10 18:43:00,
2013-01-10 12:52:00,37.0,27.0,29.96,SE,130,10.0,16.0,64,-99.99,,,-99.99,,2013-01-10 18:52:00,
2013-01-10 13:03:00,37.0,27.0,29.96,SE,130,10.0,16.0,64,-99.99,,,-99.99,,2013-01-10 19:03:00,
2013-01-10 13:13:00,37.0,25.0,29.95,SE,130,7.0,-999.0,60,-99.99,,,-99.99,,2013-01-10 19:13:00,
2013-01-10 13:23:00,37.0,25.0,29.95,SE,130,7.0,-999.0,60,-99.99,,,-99.99,,2013-01-10 19:23:00,
2013-01-10 13:33:00,37.0,28.0,29.95,SSE,160,9.0,-999.0,69,-99.99,,,-99.99,,2013-01-10 19:33:00,
2013-01-10 13:43:00,37.0,28.0,29.95,SSE,160,9.0,-999.0,69,-99.99,,,-99.99,,2013-01-10 19:43:00,
2013-01-10 13:52:00,36.0,32.0,29.94,SSE,150,7.0,-999.0,86,-99.99,,,-99.99,,2013-01-10 19:52:00,
2013-01-10 14:03:00,36.0,32.0,29.94,SSE,150,7.0,-999.0,86,-99.99,,,-99.99,,2013-01-10 20:03:00,
2013-01-10 14:12:00,36.0,32.0,29.92,North,0,0.0,-999.0,86,-99.99,,,-99.99,,2013-01-10 20:12:00,
2013-01-10 14:24:00,36.0,32.0,29.92,North,0,0.0,-999.0,86,-99.99,,,-99.99,,2013-01-10 20:24:00,
2013-01-10 14:33:00,36.0,32.0,29.91,North,0,0.0,-999.0,86,-99.99,,,-99.99,,2013-01-10 20:33:00,
2013-01-10 14:43:00,36.0,32.0,29.91,North,0,0.0,-999.0,86,-99.99,,,-99.99,,2013-01-10 20:43:00,
2013-01-10 14:53:00,36.0,32.0,29.91,SE,130,6.0,-999.0,86,-99.99,,,-99.99,,2013-01-10 20:53:00,
2013-01-10 15:03:00,36.0,32.0,29.91,SE,130,6.0,-999.0,86,-99.99,,,-99.99,,2013-01-10 21:03:00,
2013-01-10 15:12:00,36.0,32.0,29.89,ESE,120,5.0,-999.0,86,-99.99,,,-99.99,,2013-01-10 21:12:00,
2013-01-10 15:23:00,36.0,32.0,29.89,ESE,120,5.0,-999.0,86,-99.99,,,-99.99,,2013-01-10 21:23:00,
2013-01-10 15:33:00,36.0,30.0,29.88,ESE,110,7.0,-999.0,80,-99.99,,,-99.99,,2013-01-10 21:33:00,
2013-01-10 15:42:00,36.0,30.0,29.88,ESE,110,7.0,-999.0,80,-99.99,,,-99.99,,2013-01-10 21:42:00,
2013-01-10 15:53:00,36.0,30.0,29.87,East,90,8.0,-999.0,80,-99.99,,,-99.99,,2013-01-10 21:53:00,
2013-01-10 16:03:00,36.0,30.0,29.87,East,90,8.0,-999.0,80,-99.99,,,-99.99,,2013-01-10 22:03:00,
2013-01-10 16:12:00,34.0,30.0,29.86,East,100,8.0,-999.0,86,-99.99,,,-99.99,,2013-01-10 22:12:00,
2013-01-10 16:26:00,34.0,30.0,29.86,East,100,8.0,-999.0,86,-99.99,,,-99.99,,2013-01-10 22:26:00,
2013-01-10 16:33:00,34.0,30.0,29.83,ESE,110,12.0,-999.0,86,-99.99,,,-99.99,,2013-01-10 22:33:00,
2013-01-10 16:43:00,34.0,30.0,29.83,ESE,110,12.0,-999.0,86,-99.99,,,-99.99,,2013-01-10 22:43:00,
2013-01-10 17:02:00,34.0,30.0,29.82,ESE,120,14.0,20.0,86,-99.99,,,-99.99,,2013-01-10 23:02:00,
2013-01-10 17:12:00,34.0,30.0,29.79,ESE,110,13.0,18.0,86,-99.99,,,-99.99,,2013-01-10 23:12:00,
2013-01-10 17:23:00,34.0,30.0,29.79,ESE,110,13.0,18.0,86,-99.99,,,-99.99,,2013-01-10 23:23:00,
2013-01-10 17:33:00,34.0,30.0,29.80,ESE,110,9.0,-999.0,86,-99.99,,,-99.99,,2013-01-10 23:33:00,
2013-01-10 17:43:00,34.0,30.0,29.80,ESE,110,9.0,-999.0,86,-99.99,,,-99.99,,2013-01-10 23:43:00,
2013-01-10 17:53:00,34.0,30.0,29.81,SE,140,10.0,16.0,86,-99.99,,,-99.99,,2013-01-10 23:53:00,
2013-01-10 18:03:00,34.0,30.0,29.81,SE,140,10.0,16.0,86,-99.99,,,-99.99,,2013-01-11 00:03:00,
2013-01-10 18:12:00,34.0,30.0,29.80,SE,140,13.0,18.0,86,-99.99,,,-99.99,,2013-01-11 00:12:00,
2013-01-10 18:23:00,34.0,30.0,29.80,SE,140,13.0,18.0,86,-99.99,,,-99.99,,2013-01-11 00:23:00,
2013-01-10 18:33:00,34.0,30.0,29.78,SE,140,14.0,18.0,86,-99.99,,,-99.99,,2013-01-11 00:33:00,
2013-01-10 18:42:00,34.0,30.0,29.78,SE,140,14.0,18.0,86,-99.99,,,-99.99,,2013-01-11 00:42:00,
2013-01-10 18:52:00,34.0,30.0,29.77,SE,140,12.0,18.0,86,-99.99,,,-99.99,,2013-01-11 00:52:00,
2013-01-10 19:03:00,34.0,30.0,29.77,SE,140,12.0,18.0,86,-99.99,,,-99.99,,2013-01-11 01:03:00,
2013-01-10 19:13:00,34.0,30.0,29.78,SSE,150,7.0,-999.0,86,-99.99,,,-99.99,,2013-01-11 01:13:00,
2013-01-10 19:23:00,34.0,30.0,29.78,SSE,150,7.0,-999.0,86,-99.99,,,-99.99,,2013-01-11 01:23:00,
2013-01-10 19:43:00,34.0,32.0,29.76,SE,140,8.0,-999.0,93,-99.99,,,-99.99,,2013-01-11 01:43:00,
2013-01-10 19:52:00,34.0,32.0,29.75,SSE,150,10.0,15.0,93,-99.99,,,-99.99,,2013-01-11 01:52:00,
2013-01-10 20:03:00,34.0,32.0,29.75,SSE,150,10.0,15.0,93,-99.99,,,-99.99,,2013-01-11 02:03:00,
2013-01-10 20:13:00,34.0,30.0,29.74,SSE,150,12.0,18.0,86,-99.99,,,-99.99,,2013-01-11 02:13:00,
2013-01-10 20:23:00,34.0,30.0,29.74,SSE,150,12.0,18.0,86,-99.99,,,-99.99,,2013-01-11 02:23:00,
2013-01-10 20:33:00,34.0,32.0,29.74,SSE,150,10.0,20.0,93,-99.99,,,-99.99,,2013-01-11 02:33:00,
2013-01-10 20:43:00,34.0,32.0,29.74,SSE,150,10.0,20.0,93,-99.99,,,-99.99,,2013-01-11 02:43:00,
2013-01-10 20:53:00,34.0,34.0,29.73,SE,140,9.0,-999.0,100,-99.99,,,-99.99,,2013-01-11 02:53:00,
2013-01-10 21:02:00,34.0,34.0,29.73,SE,140,9.0,-999.0,100,-99.99,,,-99.99,,2013-01-11 03:02:00,
2013-01-10 21:12:00,34.0,34.0,29.72,SE,140,12.0,20.0,100,-99.99,,,-99.99,,2013-01-11 03:12:00,
2013-01-10 21:23:00,34.0,34.0,29.72,SE,140,12.0,20.0,100,-99.99,,,-99.99,,2013-01-11 03:23:00,
2013-01-10 21:33:00,34.0,34.0,29.72,SSE,150,8.0,-999.0,100,-99.99,,,-99.99,,2013-01-11 03:33:00,
2013-01-10 21:43:00,34.0,34.0,29.72,SSE,150,8.0,-999.0,100,-99.99,,,-99.99,,2013-01-11 03:43:00,
2013-01-10 21:52:00,34.0,34.0,29.71,SSE,160,9.0,-999.0,100,-99.99,,,-99.99,,2013-01-11 03:52:00,
2013-01-10 22:02:00,34.0,34.0,29.71,SSE,160,9.0,-999.0,100,-99.99,,,-99.99,,2013-01-11 04:02:00,
2013-01-10 22:12:00,34.0,34.0,29.71,SSE,160,10.0,-999.0,100,-99.99,,,-99.99,,2013-01-11 04:12:00,
2013-01-10 22:22:00,34.0,34.0,29.71,SSE,160,10.0,-999.0,100,-99.99,,,-99.99,,2013-01-11 04:22:00,
2013-01-10 22:33:00,34.0,34.0,29.69,SSE,160,6.0,-999.0,100,-99.99,,,-99.99,,2013-01-11 04:33:00,
2013-01-10 22:42:00,34.0,34.0,29.69,SSE,160,6.0,-999.0,100,-99.99,,,-99.99,,2013-01-11 04:42:00,
2013-01-10 22:52:00,34.0,34.0,29.68,SE,140,8.0,-999.0,100,-99.99,,,-99.99,,2013-01-11 04:52:00,
2013-01-10 23:03:00,34.0,34.0,29.68,SE,140,8.0,-999.0,100,-99.99,,,-99.99,,2013-01-11 05:03:00,
2013-01-10 23:12:00,34.0,34.0,29.67,SSE,150,8.0,-999.0,100,-99.99,,,-99.99,,2013-01-11 05:12:00,
2013-01-10 23:22:00,34.0,34.0,29.67,SSE,150,8.0,-999.0,100,-99.99,,,-99.99,,2013-01-11 05:22:00,
2013-01-10 23:33:00,34.0,34.0,29.66,SSE,150,8.0,-999.0,100,-99.99,,,-99.99,,2013-01-11 05:33:00,
2013-01-10 23:42:00,34.0,34.0,29.66,SSE,150,8.0,-999.0,100,-99.99,,,-99.99,,2013-01-11 05:42:00,
2013-01-10 23:52:00,36.0,34.0,29.63,SE,140,13.0,18.0,93,-99.99,,,-99.99,,2013-01-11 05:52:00,